Terminal Aerodrome Forecast
Issued by NWS

Home | Current Version | Previous Version | Text Only | Print | Product List | Glossary On
Versions: 1 2 3 4 5 6 7 8 9 10 11 12 13 14 15 16
000
FTUS45 KPIH 271100
TAFSUN
TAF
KSUN 271120Z 2712/2812 32008KT P6SM SKC
     FM271800 13006KT P6SM SCT060
     FM272100 25008KT P6SM BKN080
     FM280600 32006KT P6SM FEW080
      AMD LTD TO CLD VIS AND WIND TIL 271300=

USA.gov is the U.S. government's official web portal to all federal, state and local government web resources and services.